Hourly Data Report for September 14, 2018

SHEARWATER RCS
NOVA SCOTIA
Current Station Operator: ECCC - MSC

44°37'47.000" N
63°30'48.000" W
24.00 m
8205092
71264
AAW

Download Data

Hourly Data (September 2018)
Hourly Data Report for September 14, 2018
TIME Temp Definition
°C
Dew Point Definition
°C
Rel Hum Definition
%
Wind Dir Definition
10's deg

Wind Spd Definition
km/h
Visibility Definition
km
Stn Press Definition
kPa
Hmdx Definition


Wind Chill Definition


Weather Definition


00:00 15.4 13.9 91 33 6   102.14     LegendNANA
01:00 14.8 13.5 92 31 4   102.15     LegendNANA
02:00 14.6 13.4 93 32 5   102.19     LegendNANA
03:00 14.3 13.1 92 28 4   102.18     LegendNANA
04:00 13.8 12.7 93 29 2   102.17     LegendNANA
05:00 13.4 12.4 94 30 5   102.19     LegendNANA
06:00 13.4 12.4 94 29 3   102.22     LegendNANA
07:00 15.5 14.1 91 28 3   102.26     LegendNANA
08:00 17.8 15.0 83 27 3   102.27     LegendNANA
09:00 20.0 15.7 76 25 5   102.26     LegendNANA
10:00 21.9 15.6 67 28 5   102.27 26   LegendNANA
11:00 23.8 15.4 59 15 8   102.26 28   LegendNANA
12:00 23.0 15.9 64 17 13   102.22 28   LegendNANA
13:00 22.9 14.7 60 15 15   102.19 27   LegendNANA
14:00 22.9 15.0 61 16 16   102.15 27   LegendNANA
15:00 22.3 14.8 63 16 13   102.13 26   LegendNANA
16:00 22.4 13.4 57 15 13   102.12 25   LegendNANA
17:00 21.3 15.6 70 15 12   102.10 26   LegendNANA
18:00 20.4 16.3 77 14 7   102.08 25   LegendNANA
19:00 18.9 16.4 85 17 6   102.09     LegendNANA
20:00 17.6 15.4 87 18 1   102.08     LegendNANA
21:00 16.8 15.2 91 0 1   102.08     LegendNANA
22:00 16.3 15.0 92 23 2   102.07     LegendNANA
23:00 15.8 14.7 93 9 1   102.08     LegendNANA

Notes on Data Quality.

Legend

  • E = Estimated
  • M = Missing
  • NA = Not Available*
  • [empty] = Indicates an unobserved value
Date modified: